Regional Weather Roundup
Issued by NWS Spokane, WA

Home | Current Version | Previous Version | Text Only | Print | Product List | Glossary On
Versions: 1 2 3 4 5 6 7 8 9 10 11 12 13 14 15 16 17 18 19 20 21 22 23 24 25 26 27 28 29 30 31 32 33 34 35 36 37 38 39 40 41 42 43 44 45 46 47 48 49 50
135
NZUS01 KOTX 120857
RWROTX
EASTERN WASHINGTON/NORTHERN IDAHO ROUNDUP
NATIONAL WEATHER SERVICE, SPOKANE WA
100 AM PST FRI FEB 12 2016

Note: "fair" indicated few or no clouds below 12,000 feet with no
significant weather and/or obstructions to visibility.

...NORTHEAST WASHINGTON AND NORTHERN IDAHO PANHANDLE...

CITY           SKY/WX    TMP DP  RH WIND       PRES   REMARKS
SPOKANE INTL   LGT RAIN  39  38  96 NE6       30.21S
SPOKANE DOWNTO CLOUDY    41  39  93 NE3       30.23S
DEER PARK      CLOUDY    36  35  96 NW3       30.23S

...SOUTHEAST WASHINGTON AND SOUTHERN IDAHO PANHANDLE...

CITY           SKY/WX    TMP DP  RH WIND       PRES   REMARKS
WALLA WALLA    FOG       42  41  96 S6        30.21S VSB 1/4
PULLMAN/MOSCOW CLOUDY    44  39  82 E10       30.21S
LOWELL           N/A     40  39  97 NW3       30.28F

...COLUMBIA BASIN...

CITY           SKY/WX    TMP DP  RH WIND       PRES   REMARKS
EPHRATA        CLOUDY    41  37  86 N6        30.20S
MOSES LAKE     CLOUDY    40  38  93 N7        30.21F
TRI CITIES     MOCLDY    37  36  96 N6        30.24S FOG
HERMISTON      CLOUDY    42  40  92 S3        30.23R
PENDLETON      CLOUDY    40  39  97 E3        30.20S FOG

...EAST SLOPES CASCADES...

CITY           SKY/WX    TMP DP  RH WIND       PRES   REMARKS
THE DALLES     CLOUDY    44  42  93 CALM      30.24F FOG
YAKIMA         CLOUDY    38  34  85 W5        30.22S
ELLENSBURG     CLOUDY    35  32  88 CALM      30.20S FOG
WENATCHEE      CLOUDY    36  34  93 W6        30.22F FOG
OMAK           CLOUDY    34  32  92 CALM      30.23S FOG

...SOUTHERN BRITISH COLUMBIA...

CITY           SKY/WX    TMP DP  RH WIND       PRES   REMARKS

...WESTERN MONTANA...

CITY           SKY/WX    TMP DP  RH WIND       PRES   REMARKS
MISSOULA       LGT RAIN  36  35  96 CALM      30.26F

...NEIGHBORING CITIES...

CITY           SKY/WX    TMP DP  RH WIND       PRES   REMARKS
SEATTLE        HVY RAIN  50  48  93 W9        30.10R FOG
CALGARY        FOG       30  28  93 SE10      30.23F VSB 1   WCI  21



USA.gov is the U.S. government's official web portal to all federal, state and local government web resources and services.